Regional Weather Roundup
Issued by NWS

Home | Current Version | Previous Version | Text Only | Print | Product List | Glossary Off
Versions: 1 2 3 4 5 6 7 8 9 10 11 12 13 14 15 16 17 18 19 20 21 22 23 24 25 26 27 28 29 30 31 32 33 34 35 36 37 38 39 40 41 42 43 44 45 46 47 48 49 50

000
ASUS45 KABQ 020310
RWRNM
NEW MEXICO REGIONAL WEATHER ROUNDUP
NATIONAL WEATHER SERVICE ALBUQUERQUE NM
900 PM MDT SAT AUG 01 2015

NOTE: "FAIR" MEANS FEW OR NO CLOUDS BELOW 12,000 FEET AGL WITH NO
       SIGNIFICANT WEATHER OR OBSTRUCTIONS TO VISION.

      THIS PRODUCT IS RELEASED AS TWO VERSIONS.  ONE VERSION NEAR
      THE TOP OF THE HOUR CONTAINING PRELIMINARY DATA FROM ALBUQUERQUE
      AND OTHER STATIONS.  A FINAL VERSION WITH ADDITIONAL DATA IS
      ISSUED ABOUT 10 MINUTES AFTER THE HOUR.

NMZ501-503-504-510>518-020400-
NORTHWEST PLATEAU/NORTHCENTRAL MOUNTAINS

CITY           SKY/WX    TMP DP  RH WIND       PRES   REMARKS
FARMINGTON     CLEAR     73  56  54 SW7       30.16R
LOS ALAMOS     DRIZZLE   65  55  71 SW6       30.32R
SANTA FE       LGT RAIN  68  55  63 NW6       30.23S
TAOS           CLOUDY    59  48  67 SE6       30.31R
ANGEL FIRE     FAIR      53  52  96 CALM      30.41R

$$
NMZ402-403-502-505>509-020400-
WESTCENTRAL MOUNTAINS/SOUTHWEST MOUNTAINS

CITY           SKY/WX    TMP DP  RH WIND       PRES   REMARKS
GALLUP         MOCLDY    68  58  70 E7        30.24R
GRANTS         RAIN      62  60  94 NW5       30.32S
SILVER CITY      N/A     72  55  56 N13       30.17R

$$
NMZ407-409-411-412-020400-
SOUTHERN DESERTS

CITY           SKY/WX    TMP DP  RH WIND       PRES   REMARKS
LORDSBURG      FAIR      77  61  57 CALM      30.07R
DEMING         CLOUDY    80  60  50 NW15      30.07R
LAS CRUCES     CLEAR     78  66  65 CALM      30.07R
HOLLOMAN AFB   PTCLDY    86  54  33 SE12      30.03R
ALAMOGORDO     PTCLDY    82  54  36 E6        30.06R
T OR C         CLOUDY    80  57  45 W12       30.10R

$$
NMZ519>523-020400-
CENTRAL VALLEYS/CENTRAL HIGHLANDS

CITY           SKY/WX    TMP DP  RH WIND       PRES   REMARKS
ALBUQUERQUE    LGT RAIN  68  61  78 W25G32    30.20R
DOUBLE EAGLE   TSTM      66  61  82 SW21G29   30.25R
MORIARTY ARPT    N/A     68  55  62 E7        30.25S
CLINES CORNERS LGT RAIN  61  58  90 S8        30.30S
BELEN          CLOUDY    71  57  61 NW16G22   30.18R
SOCORRO        FAIR      77  55  46 N3G20     30.13R

$$
NMZ524>526-539-540-020400-
SOUTHCENTRAL MOUNTAINS

CITY           SKY/WX    TMP DP  RH WIND       PRES   REMARKS
RUIDOSO          N/A    N/A N/A N/A MISG        N/A

$$
NMZ527>531-020400-
NORTHEAST HIGHLANDS/NORTHEAST PLAINS

CITY           SKY/WX    TMP DP  RH WIND       PRES   REMARKS
RATON          CLOUDY    63  56  78 NW6       30.21R
CLAYTON        CLOUDY    74  58  57 NW6       30.13R

$$
NMZ532>537-020400-
EASTCENTRAL PLAINS

CITY           SKY/WX    TMP DP  RH WIND       PRES   REMARKS
TUCUMCARI      CLOUDY    73  62  68 NW5       30.06R
CANNON AFB     CLEAR     76  62  63 S13       30.11R
CLOVIS AIRPORT MOCLDY    73  61  64 S14       30.12R

$$
NMZ028-029-538-020400-
SOUTHEAST PLAINS

CITY           SKY/WX    TMP DP  RH WIND       PRES   REMARKS
ROSWELL        MOCLDY    86  58  38 E8        30.03R
ARTESIA        PTCLDY    86  57  37 SW6       30.04R
CARLSBAD       LGT RAIN  85  61  44 W8        29.99R
HOBBS          CLOUDY    79  63  57 CALM      30.08R


$$


USA.gov is the U.S. government's official web portal to all federal, state and local government web resources and services.